国际通讯卫星 19 星 (INTELSAT 19 (IS-19))

导读

INTELSAT 19由国际通信卫星组织(ITSO)于2012年6月1日发射,是一颗商业通信卫星。它定位于地球静止轨道,主要为亚太地区提供语音、数据、视频和互联网骨干传输服务,增强了区域通信覆盖能力,是国际通信卫星组。设计寿命超过15年,至今仍在服役,支撑跨洋互联互通,满足多国通信基础设施需求,在全球卫星通信网络中发挥重要作用。

Basic Information
目录编号:
38356
目录名称:
INTELSAT 19
国际标识:
2012-030A
轨道中心:
EARTH
卫星名称:
国际通讯卫星 19 星
卫星全名:
国际通讯卫星 19 星 (INTELSAT 19 (IS-19))
卫星状态:
在轨 (已飞行5128 天)
发射日期:
2012-06-01 UTC
国别 :
(ITSO)
星等 :
--
Orbit Information
数据来源 国际轨道数据 AOE轨道数据
星历时间 2026-06-16T13:14:55+0800
7小时前
查看轨道信息
2026-06-13T19:00:00+0800
3天前
查看轨道信息
半长轴 42164.981km 42165.345km
偏心率 0.0002818 0.0002757
轨道倾角 0.016° 0.018°
近地点辐角 92.615° 68.736°
升交点赤经 0.896° 17.078°
平近点角 55.702° 146.955°
近地点 35774.961km 35775.583km
远地点 35798.727km 35798.833km
周期 1436.110分钟 1436.128分钟
每日圈数 1.002709 1.002696
Detailed Information
卫星平台:
LS-1300
平衡模式:
三轴稳定
覆盖范围:
全球
运营商:
国际卫星通信公司
运营商所在国:
美国
制造商(研发单位):
劳拉空间系统公司
制造商所在国:
美国
使用方式:
暂无
Satellite Introduction
从1965年4月至1984年3月,国际通信卫星组织发射了5代、6种不同性能的卫星共计35颗,除6颗卫星因运载火箭和远地点发动机故障而发射失败外,其余29颗卫星均被送到了预定的静止轨道位置。1984年8月前后,国际通信卫星组织利用部署在大西洋、太平洋、印度洋上空的15颗国际通信卫星,为遍布世界各地170多个国家或地区提供电话、电传、电报、电视和数据传输等电信业务;该卫星仍在工作。
2D Orbit Map
3D Orbit Map
Orbit Altitude Analysis Chart
Orbit Inclination Analysis Chart
Orbit Comprehensive Analysis Chart
View Comprehensive Chart